This is the latest recevied weather packets stored in our database for station/object EA2CW-13. If no packets are shown the sender has not sent any weather packets the latest 10 day(s).
| Time | Temp. | Humidity | Pressure | Rain* | Wind** | Luminosity | Snow |
|---|---|---|---|---|---|---|---|
| 1777790290 | 17.22° C | 90% | 1049.9 hPa | - | - | 9 W/m² | - |
| 1777789354 | 16.67° C | 91% | 1049.9 hPa | - | - | 12 W/m² | - |
| 1777788418 | 16.67° C | 94% | 1050 hPa | - | - | 14 W/m² | - |
| 1777787482 | 16.11° C | 95% | 1049.9 hPa | - | - | 9 W/m² | - |
| 1777786546 | 15.56° C | 96% | 1049.9 hPa | - | - | 5 W/m² | - |
| 1777785610 | 15° C | 96% | 1049.8 hPa | - | - | 2 W/m² | - |
| 1777784674 | 15° C | 95% | 1049.7 hPa | - | - | 0 W/m² | - |
| 1777783738 | 15° C | 95% | 1049.7 hPa | - | - | 0 W/m² | - |
| 1777782802 | 15° C | 95% | 1049.6 hPa | - | - | 0 W/m² | - |
| 1777781866 | 15° C | 95% | 1049.5 hPa | - | - | 0 W/m² | - |
| 1777780930 | 15° C | 95% | 1049.6 hPa | - | - | 0 W/m² | - |
| 1777779994 | 15° C | 94% | 1049.6 hPa | - | - | 0 W/m² | - |
| 1777779058 | 15° C | 94% | 1049.7 hPa | - | - | 0 W/m² | - |
| 1777778122 | 15.56° C | 94% | 1049.8 hPa | - | - | 0 W/m² | - |
| 1777777186 | 15.56° C | 93% | 1049.9 hPa | - | - | 0 W/m² | - |
| 1777776250 | 15.56° C | 93% | 1050 hPa | - | - | 0 W/m² | - |
| 1777775314 | 15.56° C | 93% | 1050.2 hPa | - | - | 0 W/m² | - |
| 1777774378 | 15.56° C | 92% | 1050.1 hPa | - | - | 0 W/m² | - |
| 1777773442 | 16.11° C | 92% | 1050.2 hPa | - | - | 0 W/m² | - |
| 1777772506 | 16.11° C | 91% | 1050.3 hPa | - | - | 0 W/m² | - |
| 1777771570 | 16.67° C | 90% | 1050.4 hPa | - | - | 0 W/m² | - |
| 1777770634 | 17.22° C | 89% | 1050.6 hPa | - | - | 0 W/m² | - |
| 1777769698 | 16.67° C | 90% | 1050.7 hPa | - | - | 0 W/m² | - |
| 1777768762 | 17.22° C | 89% | 1050.8 hPa | - | - | 0 W/m² | - |
| 1777767826 | 16.67° C | 90% | 1050.8 hPa | - | - | 0 W/m² | - |
* Rain since midnight (hover to see other rain measurements)
** Current wind speed in m/s (hover to see current wind gust speed)